This is the latest recevied weather packets stored in our database for station/object KC4JIR. If no packets are shown the sender has not sent any weather packets the latest 10 day(s).
| Time | Temp. | Humidity | Pressure | Rain* | Wind** | Luminosity | Snow |
|---|---|---|---|---|---|---|---|
| 1788265327 | 23.33° C | 99% | 1017.7 hPa | 0 mm | - | 32 W/m² | - |
| 1788265021 | 23.33° C | 99% | 1017.6 hPa | 0 mm | - | 28 W/m² | - |
| 1788264716 | 23.33° C | 99% | 1017.3 hPa | 0 mm | - | 34 W/m² | - |
| 1788264410 | 22.78° C | 99% | 1017.1 hPa | 0 mm | - | 28 W/m² | - |
| 1788264106 | 22.78° C | 99% | 1017.4 hPa | 0 mm | - | 21 W/m² | - |
| 1788263801 | 22.78° C | 99% | 1017.4 hPa | 0 mm | - | 18 W/m² | - |
| 1788263497 | 22.78° C | 99% | 1017.1 hPa | 0 mm | - | 16 W/m² | - |
| 1788263194 | 22.78° C | 99% | 1017.1 hPa | 0 mm | - | 12 W/m² | - |
| 1788262893 | 22.78° C | 99% | 1017.4 hPa | 0 mm | - | 11 W/m² | - |
| 1788262591 | 22.78° C | 99% | 1017 hPa | 0 mm | - | 9 W/m² | - |
| 1788262287 | 22.78° C | 99% | 1017.1 hPa | 0 mm | - | 7 W/m² | - |
| 1788261981 | 22.78° C | 99% | 1016.9 hPa | 0 mm | - | 5 W/m² | - |
| 1788261675 | 22.78° C | 99% | 1016.8 hPa | 0 mm | - | 3 W/m² | - |
| 1788261375 | 22.78° C | 99% | 1017 hPa | 0 mm | - | 1 W/m² | - |
| 1788261074 | 22.78° C | 99% | 1016.8 hPa | 0 mm | - | 0 W/m² | - |
| 1788260769 | 22.78° C | 99% | 1016.6 hPa | 0 mm | - | 0 W/m² | - |
| 1788260466 | 22.78° C | 99% | 1016.6 hPa | 0 mm | - | 0 W/m² | - |
| 1788260161 | 22.78° C | 99% | 1016.5 hPa | 0 mm | - | 0 W/m² | - |
| 1788259854 | 22.78° C | 99% | 1016.4 hPa | 0 mm | - | 0 W/m² | - |
| 1788259551 | 22.78° C | 99% | 1016.5 hPa | 0 mm | - | 0 W/m² | - |
| 1788259246 | 22.78° C | 99% | 1016.4 hPa | 0 mm | - | 0 W/m² | - |
| 1788258940 | 22.78° C | 99% | 1016.4 hPa | 0 mm | - | 0 W/m² | - |
| 1788258640 | 22.78° C | 99% | 1016.6 hPa | 0 mm | - | 0 W/m² | - |
| 1788258335 | 22.78° C | 99% | 1016.4 hPa | 0 mm | - | 0 W/m² | - |
| 1788258030 | 22.78° C | 99% | 1016.3 hPa | 0 mm | - | 0 W/m² | - |
* Rain latest hour (hover to see other rain measurements)
** Current wind speed in m/s (hover to see current wind gust speed)